Satellite: RESURS Catalog number: 25394 Epoch time: 09239.68045828 Element set: 295 Inclination: 098.3346 deg RA of node: 268.3759 deg Eccentricity: 0.0002137 Arg of perigee: 028.0750 deg Mean anomaly: 332.0544 deg Mean motion: 14.24188662 rev/day Decay rate: -6.0e-08 rev/day^2 Epoch rev: 57857 Checksum: 324
Satellite: FENGYUN1 Catalog number: 25730 Epoch time: 09238.92181574 Element set: 0838 Inclination: 098.7589 deg RA of node: 206.9713 deg Eccentricity: 0.0023056 Arg of perigee: 018.7452 deg Mean anomaly: 341.4562 deg Mean motion: 14.07963102 rev/day Decay rate: 2.53e-06 rev/day^2 Epoch rev: 53027 Checksum: 307
Satellite: OKEAN-0 Catalog number: 25860 Epoch time: 09238.51915765 Element set: 0770 Inclination: 097.7931 deg RA of node: 216.9296 deg Eccentricity: 0.0001054 Arg of perigee: 039.2444 deg Mean anomaly: 320.8841 deg Mean motion: 14.73584875 rev/day Decay rate: 1.0e-08 rev/day^2 Epoch rev: 54350 Checksum: 311
Satellite: NOAA-16 Catalog number: 26536 Epoch time: 09238.84326410 Element set: 0536 Inclination: 099.1788 deg RA of node: 244.2283 deg Eccentricity: 0.0011512 Arg of perigee: 084.5033 deg Mean anomaly: 275.7427 deg Mean motion: 14.12531138 rev/day Decay rate: 1.47e-06 rev/day^2 Epoch rev: 46027 Checksum: 297
Satellite: NOAA-17 Catalog number: 27453 Epoch time: 09238.68294984 Element set: 0536 Inclination: 098.4770 deg RA of node: 295.3035 deg Eccentricity: 0.0010632 Arg of perigee: 278.3849 deg Mean anomaly: 081.6109 deg Mean motion: 14.24086837 rev/day Decay rate: 1.68e-06 rev/day^2 Epoch rev: 37278 Checksum: 350
Satellite: NOAA-18 Catalog number: 28654 Epoch time: 09238.66095908 Element set: 0022 Inclination: 098.9103 deg RA of node: 181.3662 deg Eccentricity: 0.0014592 Arg of perigee: 160.3555 deg Mean anomaly: 199.8171 deg Mean motion: 14.11280760 rev/day Decay rate: 2.0e-07 rev/day^2 Epoch rev: 21989 Checksum: 314
Satellite: NOAA-19 Catalog number: 33591 Epoch time: 09238.65613637 Element set: 0227 Inclination: 098.7493 deg RA of node: 182.5970 deg Eccentricity: 0.0015039 Arg of perigee: 046.5168 deg Mean anomaly: 313.7245 deg Mean motion: 14.10979783 rev/day Decay rate: -1.77e-06 rev/day^2 Epoch rev: 02837 Checksum: 341
/EX SB KEPS @ AMSAT $ORB09239.M Orbital Elements 09239.MISC
HR AMSAT ORBITAL ELEMENTS FOR MANNED AND MISCELLANEOUS SATELLITES FROM WA5QGD FORT WORTH,TX August 27, 2009 Send Subscribe/unsubscribe to KEPS at http://www.amsat.org/mailman/listinfo/keps BID: ORB09239.M TO ALL RADIO AMATEURS BT
Satellite: HUBBLE Catalog number: 20580 Epoch time: 09237.73813890 Element set: 0438 Inclination: 028.4706 deg RA of node: 008.3676 deg Eccentricity: 0.0003213 Arg of perigee: 300.6862 deg Mean anomaly: 059.3408 deg Mean motion: 15.00824251 rev/day Decay rate: 2.81e-06 rev/day^2 Epoch rev: 86031 Checksum: 276
Satellite: ISS Catalog number: 25544 Epoch time: 09239.72612858 Element set: 495 Inclination: 051.6401 deg RA of node: 299.6049 deg Eccentricity: 0.0008936 Arg of perigee: 024.4566 deg Mean anomaly: 335.7383 deg Mean motion: 15.73800293 rev/day Decay rate: 8.596e-05 rev/day^2 Epoch rev: 61722 Checksum: 333
Satellite: CO-58 Catalog number: 28895 Epoch time: 09239.69263419 Element set: 380 Inclination: 098.0474 deg RA of node: 128.2698 deg Eccentricity: 0.0018780 Arg of perigee: 122.2545 deg Mean anomaly: 238.0475 deg Mean motion: 14.59790323 rev/day Decay rate: 5.9e-07 rev/day^2 Epoch rev: 20416 Checksum: 342
Satellite: FALCON Catalog number: 30776 Epoch time: 09238.76504926 Element set: 0651 Inclination: 035.4342 deg RA of node: 031.1876 deg Eccentricity: 0.0000540 Arg of perigee: 269.9893 deg Mean anomaly: 090.0761 deg Mean motion: 15.03289930 rev/day Decay rate: 1.78e-06 rev/day^2 Epoch rev: 13572 Checksum: 304
Satellite: MAST Catalog number: 31126 Epoch time: 09238.66455084 Element set: 0672 Inclination: 097.9812 deg RA of node: 290.2205 deg Eccentricity: 0.0095842 Arg of perigee: 061.2880 deg Mean anomaly: 299.7925 deg Mean motion: 14.53513417 rev/day Decay rate: 4.9e-07 rev/day^2 Epoch rev: 12527 Checksum: 314
Satellite: CAPE1 Catalog number: 31130 Epoch time: 09238.63512453 Element set: 0681 Inclination: 097.9821 deg RA of node: 288.2195 deg Eccentricity: 0.0103893 Arg of perigee: 067.4997 deg Mean anomaly: 293.7126 deg Mean motion: 14.52082152 rev/day Decay rate: 8.2e-07 rev/day^2 Epoch rev: 12491 Checksum: 309
Satellite: COMPASS Catalog number: 32787 Epoch time: 09239.89092465 Element set: 447 Inclination: 097.9368 deg RA of node: 303.0893 deg Eccentricity: 0.0016243 Arg of perigee: 155.9540 deg Mean anomaly: 204.2432 deg Mean motion: 14.81646482 rev/day Decay rate: 3.54e-06 rev/day^2 Epoch rev: 7206 Checksum: 318
Satellite: AAUSAT2 Catalog number: 32788 Epoch time: 09239.85282097 Element set: 443 Inclination: 097.9361 deg RA of node: 303.1219 deg Eccentricity: 0.0015905 Arg of perigee: 156.7194 deg Mean anomaly: 203.4710 deg Mean motion: 14.81768401 rev/day Decay rate: -1.07e-06 rev/day^2 Epoch rev: 7206 Checksum: 302
Satellite: DO-64 Catalog number: 32789 Epoch time: 09238.72670333 Element set: 0460 Inclination: 097.9404 deg RA of node: 302.2129 deg Eccentricity: 0.0015889 Arg of perigee: 158.5093 deg Mean anomaly: 201.6784 deg Mean motion: 14.81773706 rev/day Decay rate: 1.10e-06 rev/day^2 Epoch rev: 07189 Checksum: 325
Satellite: CO-66 Catalog number: 32791 Epoch time: 09239.19917808 Element set: 439 Inclination: 097.9386 deg RA of node: 302.4365 deg Eccentricity: 0.0016254 Arg of perigee: 155.7154 deg Mean anomaly: 204.4823 deg Mean motion: 14.81468695 rev/day Decay rate: -5.0e-08 rev/day^2 Epoch rev: 7192 Checksum: 339
Satellite: RS-30 Catalog number: 32953 Epoch time: 09238.85966450 Element set: 0390 Inclination: 082.4988 deg RA of node: 212.6614 deg Eccentricity: 0.0020160 Arg of perigee: 028.2675 deg Mean anomaly: 331.9494 deg Mean motion: 12.43002981 rev/day Decay rate: 1.0e-07 rev/day^2 Epoch rev: 05717 Checksum: 297
Satellite: TACSAT-3 Catalog number: 35001 Epoch time: 09239.91685605 Element set: 82 Inclination: 040.4555 deg RA of node: 171.6336 deg Eccentricity: 0.0025485 Arg of perigee: 333.6354 deg Mean anomaly: 026.3166 deg Mean motion: 15.39074882 rev/day Decay rate: 1.392e-05 rev/day^2 Epoch rev: 1540 Checksum: 291
Satellite: PHARMSAT Catalog number: 35002 Epoch time: 09239.86702819 Element set: 80 Inclination: 040.4688 deg RA of node: 171.3438 deg Eccentricity: 0.0028497 Arg of perigee: 337.7160 deg Mean anomaly: 022.2415 deg Mean motion: 15.39831737 rev/day Decay rate: 1.234e-05 rev/day^2 Epoch rev: 1539 Checksum: 295
Satellite: HAWKSAT1 Catalog number: 35003 Epoch time: 09239.89915178 Element set: 85 Inclination: 040.4621 deg RA of node: 170.6285 deg Eccentricity: 0.0028760 Arg of perigee: 340.5292 deg Mean anomaly: 019.4433 deg Mean motion: 15.40481695 rev/day Decay rate: 2.679e-05 rev/day^2 Epoch rev: 1541 Checksum: 300
Satellite: CP6 Catalog number: 35004 Epoch time: 09239.96357521 Element set: 79 Inclination: 040.4621 deg RA of node: 170.2400 deg Eccentricity: 0.0028297 Arg of perigee: 341.3468 deg Mean anomaly: 018.6297 deg Mean motion: 15.40521633 rev/day Decay rate: 2.935e-05 rev/day^2 Epoch rev: 1541 Checksum: 284
Satellite: AEROCUB3 Catalog number: 35005 Epoch time: 09239.78091622 Element set: 79 Inclination: 040.4742 deg RA of node: 171.6103 deg Eccentricity: 0.0028333 Arg of perigee: 337.6032 deg Mean anomaly: 022.3547 deg Mean motion: 15.40324506 rev/day Decay rate: 2.876e-05 rev/day^2 Epoch rev: 1538 Checksum: 274
Satellite: DRAGNSAT Catalog number: 35690 Epoch time: 09238.64447228 Element set: 27 Inclination: 051.6455 deg RA of node: 303.5995 deg Eccentricity: 0.0003724 Arg of perigee: 164.5711 deg Mean anomaly: 195.5388 deg Mean motion: 15.81475644 rev/day Decay rate: 1.5274e-04 rev/day^2 Epoch rev: 429 Checksum: 317
Satellite: POLLUX Catalog number: 35693 Epoch time: 09239.60138911 Element set: 27 Inclination: 051.6418 deg RA of node: 298.7448 deg Eccentricity: 0.0004047 Arg of perigee: 103.3990 deg Mean anomaly: 256.7477 deg Mean motion: 15.80951234 rev/day Decay rate: 1.4243e-04 rev/day^2 Epoch rev: 441 Checksum: 300
Satellite: CASTOR Catalog number: 35694 Epoch time: 09239.60743633 Element set: 27 Inclination: 051.6428 deg RA of node: 298.7907 deg Eccentricity: 0.0004563 Arg of perigee: 113.0465 deg Mean anomaly: 247.1027 deg Mean motion: 15.80405492 rev/day Decay rate: 7.866e-05 rev/day^2 Epoch rev: 441 Checksum: 302
/EX
participants (1)
-
Ray Hoad